Nellis AFB, NV

1:18 AM PST on December 07, 2019 (GMT -0800)
Nellis Air Force Base

Weather History for KLSV - October, 2019

Change the Weather History Date:

Thursday, October 31, 2019

  Actual Average Record
Temperature  
Mean Temperature 46 °F -  
Max Temperature 62 °F 70 °F 84 °F (2014)
Min Temperature 29 °F 46 °F 29 °F (2019)
Degree Days  
Heating Degree Days 20    
Moisture  
Dew Point -6 °F    
Average Humidity 12    
Maximum Humidity 19    
Minimum Humidity 6    
Precipitation  
Precipitation 0.00 in - - ()
Sea Level Pressure  
Sea Level Pressure 30.33 in    
Wind  
Wind Speed 2 mph (WSW)    
Max Wind Speed 6 mph    
Max Gust Speed -    
Visibility 10 miles    
Events      
Averages and records for this station are not official NWS values.
T = Trace of Precipitation, MM = Missing Value Source: NWS Daily Summary

Daily Weather History Graph

Daily Weather History Graph

Search for Another Location

Airport or City:

Astronomy

Oct. 31, 2019 Rise Set
Actual Time 7:01 AM PDT 5:45 PM PDT
Civil Twilight 6:35 AM PDT 6:11 PM PDT
Nautical Twilight 6:04 AM PDT 6:41 PM PDT
Astronomical Twilight 5:35 AM PDT 7:11 PM PDT
Moon 10:49 AM PDT (10/31) 8:50 PM PDT (10/31)
Length of Visible Light 11h 36m
Length of Day
10h 43m
Waxing Crescent, 16% of the Moon is Illuminated
Oct 31
Waxing Crescent
Nov 4
First Quarter
Nov 12
Full
Nov 19
Last Quarter
Nov 26
New

Hourly Weather History & Observations

Time (PDT) Temp. Windchill Dew Point Humidity Pressure Visibility Wind Dir Wind Speed Gust Speed Precip Events Conditions
12:58 AM 41.4 °F - -4.4 °F 15% 30.42 in 10.0 mi Calm Calm - N/A   Clear
1:58 AM 36.9 °F 33.1 °F -5.3 °F 17% 30.42 in 10.0 mi West 4.6 mph - N/A   Clear
2:58 AM 35.8 °F - -6.2 °F 17% 30.42 in 10.0 mi Calm Calm - N/A   Clear
3:58 AM 36.9 °F 33.1 °F -5.3 °F 17% 30.41 in 10.0 mi WSW 4.6 mph - N/A   Clear
4:58 AM 34.3 °F - -6.0 °F 18% 30.43 in 10.0 mi Calm Calm - N/A   Clear
5:58 AM 32.9 °F - -6.0 °F 19% 30.42 in 10.0 mi Calm Calm - N/A   Clear
6:58 AM 29.7 °F - -8.7 °F 19% 30.42 in 10.0 mi Calm Calm - N/A   Clear
7:58 AM 33.4 °F 30.4 °F -6.7 °F 18% 30.42 in 10.0 mi WNW 3.5 mph - N/A   Clear
8:58 AM 36.7 °F - -5.4 °F 17% 30.43 in 10.0 mi Calm Calm - N/A   Clear
9:58 AM 46.2 °F - -2.0 °F 13% 30.41 in 10.0 mi Calm Calm - N/A   Clear
10:58 AM 49.1 °F - -3.3 °F 11% 30.39 in 10.0 mi Calm Calm - N/A   Clear
11:58 AM 52.5 °F - -4.7 °F 9% 30.35 in 10.0 mi SW 3.5 mph - N/A   Clear
12:58 PM 56.7 °F - -6.9 °F 7% 30.30 in 10.0 mi South 3.5 mph - N/A   Clear
1:58 PM 58.3 °F - -5.6 °F 7% 30.26 in 10.0 mi Calm Calm - N/A   Clear
2:58 PM 60.1 °F - -7.4 °F 6% 30.23 in 10.0 mi South 5.8 mph - N/A   Clear
3:58 PM 62.2 °F - -6.0 °F 6% 30.22 in 10.0 mi SSW 3.5 mph - N/A   Clear
4:58 PM 60.8 °F - -4.0 °F 7% 30.23 in 10.0 mi West 1.2 mph - N/A   Clear
5:58 PM 59.0 °F - -4.0 °F 8% 30.23 in 10.0 mi West 2.3 mph - N/A   Clear
6:58 PM 53.6 °F - -5.8 °F 9% 30.25 in 10.0 mi NE 1.2 mph - N/A   Clear
7:58 PM 48.2 °F - -7.6 °F 10% 30.26 in 10.0 mi NNE 1.2 mph - N/A   Clear
8:58 PM 41.0 °F - -11.2 °F 11% 30.27 in 10.0 mi NE 2.3 mph - N/A   Clear
9:58 PM 42.8 °F - -11.2 °F 10% 30.26 in 10.0 mi Calm Calm - N/A   Clear
10:58 PM 39.2 °F - -11.2 °F 11% 30.26 in 10.0 mi South 1.2 mph - N/A   Clear
11:58 PM 40.8 °F - -8.9 °F 12% 30.25 in 10.0 mi North 2.3 mph - N/A   Clear